Temperature
11 11 10 11 11 10 11 11 11 11 11 13 13 12 12 12 12 11 11 10 9 9 8 8 8 7 7 6 5 5 5 4 4 3 3 3 3 3 3 2 2 2 2 1
11 11 12 12 11 10 11 10 11 12 12 12 12 12 12 12 12 11 10 10 9 8 8 7 7 6 5 5 4 4 3 3 3 3 3 2 2 2 2 2 1 1 1 0
10 11 13 12 11 10 10 10 10 11 11 11 11 11 12 12 12 12 11 10 9 8 7 6 6 5 4 4 4 3 3 3 2 2 2 2 1 1 1 1 0 -0 -1 -1
9 11 12 12 11 10 10 10 11 11 10 10 10 11 11 12 12 12 11 10 8 7 6 5 5 4 3 3 3 3 2 2 2 2 1 1 1 0 -0 -1 -1 -2 -2 -2
8 10 11 12 10 9 9 9 10 9 9 9 10 10 10 11 11 11 11 9 7 6 5 5 4 3 3 2 2 2 1 1 1 1 0 0 -0 -1 -2 -2 -2 -3 -3 -3
8 10 10 12 11 11 10 8 9 9 8 9 9 8 8 10 10 10 9 7 6 5 5 4 3 2 2 2 1 1 1 1 0 -0 -1 -1 -2 -2 -3 -3 -4 -4 -4 -4
9 10 10 11 10 11 10 10 8 9 9 9 8 8 9 8 8 7 6 5 5 4 4 3 2 2 1 1 0 0 0 -0 -0 -1 -2 -2 -3 -3 -4 -4 -4 -4 -4 -5
7 9 9 10 9 9 9 9 9 9 9 9 9 8 8 8 7 6 5 4 4 3 3 2 2 1 0 -0 -0 -0 -0 -1 -1 -2 -2 -3 -3 -4 -4 -5 -5 -5 -6 -7
8 8 8 9 9 10 10 9 9 9 8 8 8 8 7 7 6 5 4 4 3 2 2 1 0 -0 -1 -1 -1 -1 -1 -1 -2 -2 -3 -3 -4 -4 -5 -6 -7 -8 -9 -9
7 7 7 8 9 9 9 9 8 8 8 7 7 7 6 6 6 5 3 3 2 1 1 -0 -1 -1 -1 -1 -1 -1 -2 -2 -3 -3 -3 -4 -5 -5 -6 -7 -8 -9 -10 -9
7 7 7 8 8 9 8 8 8 7 7 7 6 6 6 5 5 4 3 2 1 0 -0 -0 -0 -1 -1 -2 -2 -2 -3 -3 -3 -4 -4 -5 -5 -7 -8 -9 -10 -10 -10 -10
6 6 5 7 8 8 8 7 7 6 6 6 6 5 4 4 3 2 1 1 0 -0 -1 -1 -1 -1 -2 -2 -3 -3 -4 -4 -4 -5 -5 -6 -7 -7 -9 -10 -10 -10 -10 -10
8 8 8 8 7 7 7 6 6 6 6 5 5 3 2 2 1 1 0 -0 -1 -1 -1 -1 -1 -2 -3 -3 -3 -4 -4 -5 -5 -6 -6 -7 -8 -9 -10 -10 -10 -10 -10 -10
7 7 6 6 6 6 6 6 6 6 5 4 3 1 0 -0 -0 -0 -0 -1 -1 -1 -1 -2 -2 -3 -3 -4 -4 -4 -5 -5 -6 -7 -7 -8 -9 -10 -11 -11 -11 -11 -11 -11
6 7 7 6 6 6 6 6 5 5 5 4 3 1 -1 -1 -1 -1 -1 -1 -1 -2 -2 -3 -3 -3 -3 -4 -4 -5 -6 -6 -7 -8 -9 -10 -10 -11 -11 -11 -11 -11 -11 -11
6 6 5 5 5 5 5 5 5 4 3 3 1 -0 -1 -1 -1 -1 -1 -2 -2 -2 -3 -3 -3 -3 -4 -4 -5 -6 -7 -7 -8 -9 -10 -10 -10 -11 -11 -11 -11 -11 -11 -11
5 5 5 5 5 5 4 4 4 3 2 1 0 -1 -1 -1 -1 -2 -2 -2 -2 -3 -3 -3 -3 -4 -5 -6 -6 -7 -7 -8 -9 -9 -10 -10 -11 -11 -11 -11 -11 -11 -11 -11
6 6 5 5 5 4 4 3 3 2 1 1 -0 -1 -1 -1 -2 -2 -2 -3 -3 -3 -3 -4 -4 -5 -6 -6 -7 -7 -8 -9 -9 -10 -11 -11 -11 -11 -11 -12 -12 -12 -12 -12
5 5 5 4 4 3 3 3 2 2 1 -0 -1 -1 -1 -2 -2 -2 -3 -3 -3 -3 -4 -5 -5 -6 -6 -7 -7 -8 -8 -9 -10 -11 -11 -11 -11 -11 -12 -12 -12 -13 -13 -13
5 5 4 4 3 3 2 2 1 1 0 -1 -1 -2 -2 -2 -3 -3 -3 -3 -4 -5 -5 -5 -6 -6 -7 -7 -8 -9 -10 -11 -11 -11 -11 -11 -11 -12 -12 -12 -13 -13 -13 -13
5 4 4 3 3 2 2 1 1 0 -1 -1 -2 -2 -2 -3 -3 -4 -4 -4 -5 -5 -6 -6 -6 -7 -8 -8 -9 -10 -11 -11 -11 -11 -11 -11 -12 -12 -13 -13 -13 -13 -14 -14
4 4 3 3 2 2 1 1 0 -1 -1 -2 -2 -2 -3 -3 -4 -4 -5 -5 -6 -6 -6 -7 -7 -8 -8 -10 -10 -10 -10 -11 -11 -11 -11 -12 -12 -12 -13 -13 -13 -14 -14 -14
3 3 2 2 1 1 1 0 -1 -1 -2 -2 -3 -3 -4 -4 -5 -5 -6 -6 -6 -7 -7 -8 -8 -9 -10 -10 -10 -10 -10 -11 -11 -11 -11 -12 -12 -13 -13 -13 -14 -14 -14 -14
2 2 2 1 1 0 -0 -1 -2 -2 -3 -3 -4 -4 -5 -5 -6 -6 -6 -7 -7 -8 -8 -9 -9 -10 -10 -10 -10 -10 -11 -11 -11 -11 -12 -12 -13 -13 -14 -14 -14 -14 -14 -14
1 1 1 0 -0 -1 -1 -2 -3 -3 -4 -4 -5 -5 -6 -6 -7 -7 -7 -8 -8 -8 -9 -9 -10 -10 -10 -10 -10 -11 -11 -11 -11 -12 -13 -13 -13 -13 -14 -14 -14 -14 -14 -14
0 0 -0 -1 -1 -2 -3 -3 -4 -4 -5 -6 -6 -7 -7 -7 -7 -8 -8 -8 -9 -9 -10 -10 -10 -10 -10 -11 -11 -11 -11 -11 -11 -12 -12 -13 -13 -13 -14 -14 -14 -14 -13 -13
-1 -1 -2 -2 -3 -3 -4 -5 -5 -6 -6 -7 -7 -7 -7 -8 -8 -8 -9 -9 -10 -10 -10 -10 -10 -10 -11 -11 -11 -11 -11 -12 -12 -12 -13 -13 -13 -13 -14 -14 -14 -13 -13 -13
Wind_Speed
4 5 8 8 11 13 11 10 10 9 9 5 2 3 2 2 4 7 8 9 9 8 7 6 6 5 5 5 5 5 5 5 5 6 7 7 8 8 8 9 11 11 12 13
4 4 4 3 8 14 11 8 7 6 7 3 1 2 2 2 4 6 8 9 9 8 8 7 6 5 4 3 3 3 3 4 5 6 7 7 8 9 9 10 11 11 12 14
4 2 3 5 9 12 8 7 9 10 8 5 3 4 2 2 1 4 7 9 9 9 8 7 6 5 4 2 2 2 3 5 6 6 7 8 10 10 10 10 11 12 12 13
5 5 6 6 1 8 7 3 5 6 6 5 4 3 3 3 3 4 5 9 9 8 7 6 5 4 3 2 2 4 5 6 6 7 7 8 8 9 9 9 10 11 13 14
5 5 5 4 5 8 8 3 2 7 7 5 4 4 4 3 3 2 6 8 8 7 7 6 5 4 3 2 3 4 5 6 7 7 7 8 9 9 9 10 11 11 13 13
5 5 8 5 4 6 7 4 3 6 7 6 5 2 3 2 2 3 7 7 7 7 7 6 5 4 3 2 3 4 6 7 7 7 8 9 10 9 8 9 11 13 14 12
5 4 7 3 3 6 5 7 7 7 7 6 6 5 3 4 4 5 6 7 8 8 6 5 4 3 2 2 4 5 6 7 7 8 8 9 8 7 10 11 12 12 15 13
6 5 8 2 7 7 5 6 7 7 6 6 5 3 5 6 6 7 7 7 7 6 5 4 4 3 1 3 5 5 6 7 8 8 8 9 9 10 9 10 12 13 14 14
7 5 1 1 5 6 7 7 7 6 6 5 3 2 4 6 7 7 7 6 5 6 5 4 3 2 2 4 5 6 7 8 8 9 8 8 9 10 10 9 10 12 12 13
3 3 2 4 6 6 5 6 5 4 3 3 3 1 3 5 6 6 6 5 5 5 5 3 2 2 3 5 6 6 7 8 9 9 9 8 6 8 9 9 10 11 12 13
3 4 4 2 4 5 6 7 7 5 3 2 2 2 4 5 7 7 6 5 5 5 4 2 2 4 5 6 5 7 8 9 9 8 9 8 7 7 10 8 12 15 12 12
6 8 7 6 4 5 6 5 5 3 2 2 1 3 4 5 6 6 6 5 5 4 2 2 4 6 6 6 6 7 8 8 7 7 7 8 10 11 15 16 22 23 22 20
2 4 5 6 6 5 7 5 4 4 3 1 1 1 3 3 4 5 6 5 4 2 1 3 5 7 8 7 7 7 8 9 7 7 9 9 10 12 14 15 19 21 22 23
5 7 6 5 5 5 6 5 4 2 1 1 1 2 3 4 5 6 5 4 3 1 2 4 6 8 8 7 7 7 7 10 11 8 9 10 10 11 12 14 15 12 15 22
6 6 7 7 7 5 4 3 1 1 2 2 0 1 4 5 5 4 3 2 1 1 4 5 7 8 7 6 6 7 8 8 8 8 8 9 10 11 12 14 14 14 13 15
8 8 8 7 7 5 4 4 3 4 3 3 2 2 3 3 4 3 2 1 1 4 5 6 7 7 6 6 7 7 8 15 14 9 8 9 10 12 13 13 14 14 14 14
9 7 6 5 4 4 4 5 5 5 4 5 5 4 4 4 3 2 2 3 4 6 6 7 7 7 7 7 8 8 8 10 16 12 9 11 11 12 12 12 12 13 13 17
7 7 7 6 4 3 2 3 5 6 6 6 5 6 6 6 5 4 3 3 4 5 6 6 6 7 7 7 7 7 7 8 9 10 10 11 12 11 11 12 13 15 13 15
7 8 7 6 4 3 3 4 5 5 5 5 6 7 6 5 4 4 3 3 5 6 6 6 11 9 7 9 12 7 8 10 11 11 11 16 14 10 11 12 13 13 13 14
6 5 5 3 3 3 4 4 4 4 4 5 6 6 5 5 4 4 2 4 5 6 6 9 8 7 7 9 14 8 9 10 10 10 11 10 10 10 10 12 12 13 13 13
5 5 4 4 4 5 5 5 4 5 5 6 6 6 5 4 4 3 2 5 5 6 6 11 7 7 8 11 14 8 8 9 10 10 10 10 10 11 12 12 13 14 14 13
5 5 5 5 5 5 5 5 5 5 6 6 5 4 4 3 2 3 5 5 5 9 7 6 6 11 15 16 7 7 8 9 10 9 8 9 10 11 12 12 12 13 12 12
4 4 5 5 5 4 3 3 4 4 5 5 5 5 4 3 2 2 4 3 4 11 9 6 12 19 22 12 6 7 9 10 10 9 9 9 9 10 11 11 11 11 11 12
4 3 3 2 2 1 2 2 2 3 3 3 3 4 3 1 1 2 3 8 12 14 8 12 19 20 19 7 7 8 9 9 9 9 10 10 9 9 10 11 11 11 11 12
1 2 2 2 1 2 2 2 4 4 4 4 4 4 3 1 2 3 5 6 12 13 8 12 18 19 12 8 9 10 9 9 11 11 9 9 9 10 11 11 11 11 11 11
1 1 1 2 1 1 2 4 4 4 4 4 3 2 2 2 3 4 5 6 9 12 10 8 10 12 9 9 9 10 10 12 12 11 11 11 12 11 11 10 11 10 10 10
3 3 4 4 4 4 4 5 5 5 4 3 1 2 3 4 4 5 6 6 7 7 8 8 9 9 10 10 10 10 10 10 11 11 11 11 10 10 10 11 10 10 10 10
Wind_Direction
118 151 155 171 182 181 190 188 188 218 217 234 208 209 212 197 167 162 162 158 153 142 134 125 111 96 80 62 45 45 40 24 4 346 338 333 333 334 334 336 337 330 329 328
80 84 138 175 194 190 199 190 196 188 217 233 212 137 92 77 139 169 175 166 153 144 141 135 129 117 102 81 45 38 28 6 353 346 339 336 335 335 335 334 330 326 324 324
139 126 106 245 208 185 192 191 174 196 209 158 125 120 74 15 269 214 189 167 157 153 149 146 146 141 133 103 40 22 14 2 350 340 336 334 335 334 331 326 323 323 323 323
126 137 213 245 159 156 145 156 170 137 124 131 138 110 31 15 325 280 181 158 152 148 144 142 135 134 129 93 34 16 4 345 335 335 331 326 325 323 320 317 319 320 320 316
138 182 252 260 162 147 134 140 130 126 120 104 90 54 360 12 350 268 173 154 150 145 137 131 131 132 122 71 23 4 341 328 327 326 323 325 323 315 311 316 319 317 313 310
132 170 224 233 158 150 105 158 211 145 136 128 108 95 272 333 70 110 123 126 126 122 125 134 136 131 110 47 3 336 320 313 313 318 320 313 303 298 306 313 311 311 309 307
150 206 254 215 144 128 162 209 163 144 136 138 165 195 211 136 129 126 118 119 124 130 137 143 133 111 79 359 321 306 305 309 317 316 306 294 291 298 307 309 310 309 308 308
152 192 243 156 138 166 169 131 132 143 159 174 194 178 143 151 146 137 129 131 134 135 135 126 111 100 3 300 292 301 310 314 308 300 298 306 301 302 303 305 310 310 309 309
185 198 258 67 144 136 130 136 162 172 185 172 166 154 153 164 166 161 154 150 137 134 131 123 119 143 281 288 306 317 315 306 298 296 291 292 296 303 308 306 306 307 308 310
154 203 117 104 112 121 125 133 143 130 124 133 154 162 177 174 173 166 157 153 139 138 148 172 204 259 279 299 313 312 302 297 295 296 298 293 287 296 303 302 302 304 308 315
167 159 130 165 149 133 112 98 92 82 79 96 146 175 181 182 177 169 161 154 147 149 166 211 288 309 307 305 306 299 293 291 293 292 298 305 299 289 299 288 297 309 313 317
201 192 173 191 160 121 116 99 81 85 90 91 160 207 186 182 174 164 158 145 139 145 179 290 311 309 306 304 298 292 296 295 294 303 305 305 307 307 306 310 313 314 315 316
162 130 122 121 93 89 109 108 97 90 84 85 94 176 173 164 155 144 139 139 149 169 255 300 310 306 301 298 290 282 289 303 305 307 307 308 309 313 316 318 318 317 316 317
129 112 106 127 124 107 119 134 139 142 154 171 186 184 159 143 140 144 149 152 151 181 298 303 297 288 284 283 282 286 295 310 313 303 302 304 306 310 312 316 318 315 315 318
67 93 122 118 119 128 138 147 163 260 272 270 179 157 155 155 160 161 149 130 95 321 291 281 275 276 281 290 303 308 309 304 298 293 296 302 307 309 310 310 310 312 314 319
108 97 112 134 156 171 183 198 224 253 262 271 263 230 187 161 148 143 143 146 231 270 272 271 275 286 306 315 312 304 298 303 309 307 306 309 309 309 309 309 310 312 316 319
143 152 155 155 168 183 198 214 225 243 247 244 238 216 170 150 154 191 229 227 235 256 269 279 291 302 303 296 291 293 292 300 310 311 306 307 307 306 307 308 311 313 313 315
151 152 154 146 154 182 233 243 238 234 228 225 206 177 175 181 199 219 236 250 266 281 282 283 287 290 282 282 287 289 293 297 302 302 303 305 305 306 310 311 312 312 314 316
136 137 141 145 160 184 223 246 245 234 221 190 175 184 190 195 202 216 229 271 301 304 296 293 307 306 293 299 311 297 297 296 298 299 302 306 310 306 307 309 311 312 313 315
135 140 151 168 183 203 232 243 238 229 205 177 172 176 186 196 200 212 237 269 263 258 275 291 293 285 290 298 308 292 289 291 295 300 303 303 305 307 309 310 311 312 313 312
163 176 197 225 247 245 240 235 217 215 200 183 184 192 196 190 183 196 243 275 274 274 285 300 305 298 300 300 303 291 290 294 299 300 303 304 305 307 308 310 310 310 310 311
192 199 211 219 235 253 246 224 211 204 186 184 188 183 181 200 217 236 240 247 273 304 309 290 290 302 308 307 297 291 293 298 301 300 297 297 299 302 303 302 302 304 307 308
204 203 202 207 224 246 262 236 215 197 189 188 186 187 191 198 202 242 285 284 294 307 312 295 304 308 311 312 295 295 299 300 299 297 296 293 291 292 294 296 299 303 304 304
202 190 178 159 150 198 277 274 212 181 168 160 158 150 145 148 275 248 257 301 311 310 306 303 309 311 315 314 301 298 296 296 294 292 293 292 291 293 297 300 301 301 301 301
160 148 135 128 156 228 237 149 121 113 111 97 88 83 86 114 257 290 291 293 305 312 303 307 310 313 315 301 300 299 298 292 292 296 296 299 299 298 298 297 299 301 303 303
152 137 106 112 113 114 116 114 104 99 98 90 73 51 10 329 295 286 284 285 289 305 308 302 301 305 303 300 297 295 294 296 299 301 298 296 295 295 297 300 301 301 301 301
104 94 91 81 65 71 86 92 96 93 90 91 56 340 326 315 306 301 299 296 298 300 300 303 304 302 300 298 296 294 294 295 296 296 296 295 295 296 299 299 299 298 298 298
Height
1448 1449 1452 1454 1459 1465 1467 1469 1476 1472 1471 1462 1461 1461 1462 1463 1463 1464 1466 1468 1470 1472 1474 1476 1477 1478 1478 1478 1477 1475 1473 1469 1466 1463 1460 1456 1452 1448 1444 1440 1436 1431 1426 1421
1450 1449 1449 1451 1454 1459 1460 1462 1464 1463 1463 1459 1459 1460 1461 1461 1461 1462 1464 1466 1468 1470 1472 1474 1475 1476 1476 1475 1474 1471 1469 1466 1463 1460 1457 1453 1448 1444 1440 1436 1432 1427 1421 1415
1455 1451 1448 1453 1450 1454 1455 1454 1457 1461 1458 1457 1459 1459 1460 1460 1461 1461 1462 1464 1466 1468 1470 1472 1473 1474 1473 1472 1470 1468 1465 1462 1459 1456 1453 1449 1445 1441 1436 1431 1427 1421 1416 1410
1456 1454 1460 1445 1441 1444 1449 1451 1450 1451 1454 1455 1457 1459 1460 1461 1461 1462 1462 1462 1464 1466 1468 1470 1471 1471 1470 1469 1467 1465 1462 1459 1456 1452 1449 1445 1442 1437 1433 1427 1421 1416 1410 1404
1455 1454 1449 1443 1442 1443 1447 1452 1450 1452 1454 1456 1457 1459 1460 1461 1461 1461 1460 1461 1463 1465 1467 1468 1468 1468 1467 1465 1463 1461 1459 1456 1452 1449 1445 1442 1438 1434 1428 1422 1415 1410 1404 1399
1452 1452 1453 1438 1436 1436 1442 1454 1451 1451 1453 1455 1457 1463 1463 1461 1460 1459 1459 1459 1461 1464 1465 1466 1465 1464 1463 1461 1460 1458 1455 1452 1449 1446 1442 1439 1434 1429 1422 1416 1410 1404 1398 1393
1448 1449 1443 1436 1435 1437 1449 1446 1448 1449 1451 1454 1456 1460 1460 1458 1457 1457 1458 1459 1461 1462 1463 1463 1462 1461 1460 1458 1456 1454 1452 1449 1446 1443 1439 1435 1429 1423 1417 1410 1404 1399 1392 1386
1448 1449 1445 1435 1436 1440 1441 1443 1446 1449 1452 1454 1455 1456 1456 1455 1455 1456 1457 1458 1459 1459 1460 1460 1459 1458 1456 1455 1453 1451 1448 1446 1442 1439 1435 1429 1423 1417 1411 1406 1399 1392 1385 1378
1438 1439 1435 1433 1434 1436 1439 1442 1446 1449 1451 1452 1453 1453 1454 1454 1454 1454 1455 1456 1457 1457 1457 1457 1456 1454 1453 1452 1449 1447 1444 1442 1438 1434 1429 1423 1417 1411 1406 1401 1394 1387 1380 1373
1436 1436 1435 1435 1436 1438 1441 1443 1446 1447 1449 1449 1450 1451 1451 1451 1452 1452 1453 1454 1454 1454 1454 1453 1452 1451 1450 1448 1445 1443 1440 1437 1433 1427 1422 1417 1412 1407 1401 1395 1389 1382 1376 1370
1433 1434 1435 1435 1436 1438 1440 1442 1444 1446 1447 1447 1448 1448 1449 1449 1449 1450 1450 1451 1451 1451 1450 1450 1449 1448 1446 1444 1442 1439 1436 1431 1426 1421 1416 1411 1406 1402 1396 1391 1386 1380 1373 1368
1428 1427 1430 1432 1435 1437 1439 1441 1443 1445 1445 1445 1445 1445 1445 1446 1446 1446 1447 1447 1447 1447 1447 1447 1446 1445 1443 1441 1438 1434 1429 1424 1420 1415 1410 1405 1399 1393 1389 1386 1380 1375 1370 1365
1423 1424 1427 1430 1433 1436 1438 1440 1442 1442 1443 1442 1442 1442 1441 1442 1442 1443 1443 1444 1444 1444 1444 1444 1443 1442 1440 1437 1433 1429 1424 1419 1414 1410 1405 1399 1393 1387 1380 1375 1372 1368 1363 1360
1422 1424 1427 1430 1433 1436 1437 1439 1439 1440 1439 1439 1438 1437 1437 1438 1439 1439 1440 1441 1442 1442 1442 1441 1440 1439 1435 1432 1428 1424 1419 1415 1410 1405 1399 1394 1389 1384 1378 1371 1365 1360 1358 1354
1421 1424 1427 1430 1433 1434 1436 1436 1437 1437 1436 1435 1434 1433 1434 1435 1436 1437 1438 1439 1439 1440 1439 1438 1436 1434 1431 1427 1423 1419 1414 1409 1404 1398 1393 1389 1384 1380 1375 1369 1363 1358 1353 1348
1421 1424 1427 1429 1431 1432 1433 1433 1433 1432 1431 1431 1430 1430 1431 1432 1434 1435 1436 1437 1437 1437 1436 1434 1431 1429 1426 1421 1417 1412 1408 1403 1398 1393 1388 1384 1379 1375 1371 1365 1360 1355 1350 1345
1420 1423 1425 1427 1428 1429 1430 1429 1429 1428 1428 1428 1428 1428 1429 1430 1431 1433 1433 1433 1433 1433 1431 1429 1427 1424 1420 1416 1411 1406 1401 1397 1392 1388 1384 1379 1375 1371 1367 1362 1357 1351 1347 1342
1418 1421 1423 1424 1425 1426 1426 1426 1425 1425 1425 1425 1425 1425 1426 1427 1428 1429 1430 1430 1429 1429 1427 1425 1422 1418 1414 1410 1405 1400 1396 1391 1387 1383 1379 1375 1371 1367 1362 1357 1352 1347 1341 1337
1417 1419 1421 1422 1423 1423 1423 1423 1423 1422 1422 1422 1422 1422 1423 1424 1425 1426 1426 1426 1425 1423 1422 1419 1416 1413 1409 1404 1400 1395 1390 1386 1382 1378 1374 1369 1365 1360 1356 1351 1346 1342 1337 1332
1416 1417 1419 1420 1420 1421 1421 1420 1419 1419 1418 1418 1419 1420 1420 1421 1422 1422 1422 1422 1421 1418 1415 1412 1409 1406 1402 1398 1393 1389 1385 1381 1376 1372 1367 1363 1358 1354 1350 1346 1341 1337 1332 1328
1413 1415 1416 1417 1417 1417 1417 1416 1416 1415 1415 1415 1416 1417 1418 1418 1418 1418 1417 1417 1416 1413 1409 1407 1403 1399 1395 1391 1387 1383 1379 1375 1371 1366 1362 1357 1353 1349 1345 1340 1336 1332 1328 1323
1410 1411 1412 1413 1413 1413 1413 1412 1412 1411 1411 1411 1412 1413 1414 1414 1414 1413 1412 1411 1409 1407 1403 1400 1397 1393 1389 1385 1381 1377 1373 1369 1364 1360 1356 1352 1348 1343 1339 1335 1331 1327 1323 1319
1408 1409 1409 1409 1409 1409 1409 1408 1407 1407 1407 1407 1408 1409 1409 1409 1408 1408 1407 1406 1403 1401 1397 1394 1390 1387 1383 1378 1374 1371 1366 1362 1358 1354 1350 1346 1342 1337 1333 1329 1325 1322 1318 1313
1405 1405 1405 1405 1405 1405 1404 1404 1403 1403 1404 1404 1404 1404 1404 1404 1403 1403 1401 1400 1398 1394 1391 1387 1384 1380 1376 1372 1368 1364 1360 1356 1352 1348 1343 1339 1335 1331 1327 1323 1320 1316 1312 1308
1401 1401 1401 1401 1401 1400 1400 1399 1399 1400 1400 1401 1401 1401 1401 1400 1399 1398 1397 1394 1392 1388 1384 1380 1377 1373 1369 1365 1361 1357 1353 1349 1345 1341 1337 1333 1329 1324 1320 1317 1314 1310 1306 1302
1397 1397 1398 1398 1397 1397 1396 1396 1397 1397 1398 1398 1399 1399 1398 1397 1395 1393 1391 1388 1385 1381 1377 1373 1370 1366 1362 1358 1354 1350 1346 1342 1339 1334 1330 1326 1321 1318 1314 1311 1308 1304 1301 1297
1394 1394 1394 1394 1394 1394 1394 1394 1395 1395 1396 1396 1397 1396 1395 1393 1391 1388 1385 1382 1378 1375 1371 1367 1363 1359 1356 1352 1347 1343 1339 1335 1331 1327 1322 1318 1314 1311 1308 1305 1302 1299 1296 1293